This is the latest recevied weather packets stored in our database for station/object KD0SBN-3. If no packets are shown the sender has not sent any weather packets the latest 10 day(s).
| Time | Temp. | Humidity | Pressure | Rain* | Wind** | Luminosity | Snow |
|---|---|---|---|---|---|---|---|
| 1777769884 | 10.56° C | 32% | 1030 hPa | 0 mm | - | 31 W/m² | - |
| 1777769581 | 10.56° C | 32% | 1029.8 hPa | 0 mm | - | 27 W/m² | - |
| 1777769276 | 11.67° C | 30% | 1029.7 hPa | 0 mm | - | 37 W/m² | - |
| 1777768975 | 12.22° C | 29% | 1029.6 hPa | 0 mm | - | 54 W/m² | - |
| 1777768672 | 12.22° C | 29% | 1029.8 hPa | 0 mm | - | 58 W/m² | - |
| 1777768369 | 11.67° C | 30% | 1029.6 hPa | 0 mm | - | 64 W/m² | - |
| 1777768065 | 11.67° C | 31% | 1029.6 hPa | 0 mm | - | 75 W/m² | - |
| 1777767762 | 11.67° C | 30% | 1029.7 hPa | 0 mm | - | 86 W/m² | - |
| 1777767458 | 12.22° C | 30% | 1029.7 hPa | 0 mm | - | 98 W/m² | - |
| 1777767155 | 11.67° C | 30% | 1029.7 hPa | 0 mm | - | 97 W/m² | - |
| 1777766853 | 10.56° C | 31% | 1029.8 hPa | 0 mm | - | 57 W/m² | - |
| 1777766550 | 10° C | 31% | 1030 hPa | 0 mm | - | 53 W/m² | - |
| 1777766247 | 10.56° C | 31% | 1029.8 hPa | 0 mm | - | 56 W/m² | - |
| 1777765945 | 10.56° C | 33% | 1029.8 hPa | 0 mm | - | 63 W/m² | - |
| 1777765641 | 10.56° C | 31% | 1029.7 hPa | 0 mm | - | 72 W/m² | - |
| 1777765338 | 10.56° C | 31% | 1029.6 hPa | 0 mm | - | 70 W/m² | - |
| 1777765034 | 11.11° C | 30% | 1029.8 hPa | 0 mm | - | 72 W/m² | - |
| 1777764731 | 11.11° C | 30% | 1029.6 hPa | 0 mm | - | 67 W/m² | - |
| 1777764427 | 11.67° C | 29% | 1029.6 hPa | 0 mm | - | 74 W/m² | - |
| 1777764124 | 11.11° C | 29% | 1029.6 hPa | 0 mm | - | 87 W/m² | - |
| 1777763821 | 11.11° C | 29% | 1029.4 hPa | 0 mm | - | 88 W/m² | - |
| 1777763519 | 11.67° C | 29% | 1029.6 hPa | 0 mm | - | 92 W/m² | - |
| 1777763217 | 10.56° C | 31% | 1029.4 hPa | 0 mm | - | 94 W/m² | - |
| 1777762915 | 10.56° C | 32% | 1029.6 hPa | 0 mm | - | 96 W/m² | - |
| 1777762610 | 11.11° C | 33% | 1029.6 hPa | 0 mm | - | 102 W/m² | - |
* Rain latest hour (hover to see other rain measurements)
** Current wind speed in m/s (hover to see current wind gust speed)